OneWeb SL0422

operational
NORAD ID: 51626 Int'l Des: 2022-012 Owner: ONEWEBN Country: UK Constellation: oneweb
LEOCIRCULARPOLARONEWEB_TYPE

关于 OneWeb SL0422

正在加载描述...

实时位置

正在加载3D地球...

即将过境

高度历史

Altitude vs Time

uPlot chart will show altitude changes over time

两行轨道根数

1 51626U 22012E 25354.16992698 .00000071 00000-0 14907-3 0 9998
2 51626 87.9112 41.4412 0002188 82.6110 277.5270 13.17649355190232
Epoch: Dec 20, 2025 • Age: 9 hours

当前状态

高度 1199.2 km
速度 7.25 km/s
星下点 -12.46°S, 114.62°E
发射日期 Feb 10, 2022
运行时间 3.8 years
类型 internet

技术详情

分类 Payload
质量 148.00 kg
干质量 140.00 kg
总质量 148.00 kg
长度 1.30 m
直径 1.00 m
跨度 5.00 m
形状 Trapezoid+2 pan
制造商 ONEWUS
平台类型 ARROW
阶段状态 In Orbit
所有者/国家 ONEWEBN/UK

大型星座

Loading constellations...